Starlink 31727

operational
NORAD ID: 59638 Int'l Des: 2024-082 Owner: SPXS Country: US Constellation: starlink
LEOCIRCULAR

About Starlink 31727

Description loading...

Live Position

Loading 3D Globe...

Upcoming Passes

Altitude History

Altitude vs Time

uPlot chart will show altitude changes over time

Two-Line Element Set

1 59638U 24082H 25351.08222987 -.00000464 00000-0 -73415-5 0 9992
2 59638 43.0017 246.7224 0001880 273.8378 86.2259 15.27585559 92229
Epoch: Dec 17, 2025 • Age: 24 hours

Current Status

Altitude 485.1 km
Velocity 7.62 km/s
Sub-Earth Point -12.37°S, 48.09°W
Launch Date May 3, 2024
Age 1.6 years
Type internet

Technical Details

Classification Payload
Mass 730.00 kg
Dry Mass 700.00 kg
Total Mass 730.00 kg
Length 0.30 m
Diameter 4.10 m
Span 29.00 m
Shape Box + pan
Manufacturer SPXS
Bus Type Starlink V2M
Phase Status In Orbit
Owner/State SPXS/US

Large Constellations

Loading constellations...